ONEWEB-0123, 47269

Orbit data source: Space-Track

ONEWEB-0123, 47269 is a payload satellite owned by One Web (UK) in LEO that was launched on Fri, 18 Dec 2020 UTC via a SOYUZ-2-1B launch vehicle from the Vostochny Cosmodrome (VOSTO). Payload-class satellites include a variety of spacecraft equipped with specific instruments for various scientific and technological missions. These include communications satellites like Starlink; space stations such as the ISS; scientific satellites like the Hubble; Earth observation satellites from companies like Planet Labs, Umbra, and HawkEye 360; GPS; miniature CubeSats for education and research; and military/defense satellites.

Loading next visibility...
Identifier
47269, 2020-100M
Orbit
LEO
Country
Flag of UKUK
Related business
Manufacturer
One Web
Mission
Operational Commercial Communications
Bus & Motor
ARROW, Unknown motor
Mass
148 kg wet, ~140 kg dry
Launch date (UTC)
2020-12-18 (5 years ago)
Launch vehicle
SOYUZ-2-1B
Launch site
Vostochny Cosmodrome (VOSTO)
Object type
Payload
Rocket body
Debris
Shape & HBR
Trap Box + 2 Pan, 6.7 m
Radar Cross Section
3.464 m², Large (>1 m²)

Expand to show TLE details & history
Last TLE update: 9 hours ago

TLE from 9 hours ago
0 ONEWEB-0123
1 47269U 20100M   26095.17159068 -.00000394  00000-0 -11308-2 0  9993
2 47269  87.9008   5.1735 0001683  78.1133 282.0184 13.12444582255117
Epoch: 2026-04-05T04:07Z
TLE epoch observation values (Epoch: 2026-04-05T04:07:05.434Z)
Latitude
-0.00005°
Longitude
109.92002°
Altitude
1,216.342 km
Speed
7.246 km/s
True Right ascension
00h 20m 41s
True Declination
0° 00' 00"
Sunlit
Object was in daylight at epoch
Visualization orbit readout
Latitude
Unknown
Longitude
Unknown
Altitude
Unknown
Speed
Unknown
Apparent Right ascension
Unknown
Apparent Declination
Unknown
Sunlit
N/A
Visualization observer readout
Local Sidereal Time
18:59:53
Azimuth
Unknown
Elevation
Unknown
Doppler factor
Unknown
Orbital elements
Apogee altitude
1,212.111 km
Perigee altitude
1,209.557 km
Semi-major axis
7,588.971 km
Eccentricity
0.00017
Inclination
87.9008°
RAAN
5.1735°
Arg. of periapsis
78.1133°
True anomaly
281.99954°
Mean anomaly
282.0184°
Eccentric anomaly
282.00897°
Mean motion
3.28298 °/min
Orbital period
109.66 mins
BSTAR
-0.0011308
Loading maneuver chart data...
Computing Atmospheric mass density...
Loading historical data...
Loading historical data...
Loading historical data...
Loading historical data...
Loading historical data...
Loading historical data...
Loading historical data...

Documentation

Showing up to 5 results
|